EW9082 Weather Reports


time (UTC)temp
C
wind
direction
speed
KPH
gust
KPH
rain 1hr
cm
rain 24hr
cm
rain mn
cm
humidity
%
barometer
mb
20260505051545 9 148 0.0 3.2 0.00 0.00 0.00 91 1013.1
20260505041525 10 150 0.0 3.2 0.00 0.00 0.00 89 1013.5
20260505040027 10 136 0.0 4.8 0.00 0.00 0.00 88 1013.5
20260505034509 10 178 0.0 3.2 0.00 0.00 0.00 88 1013.4
20260505033006 10 202 0.0 4.8 0.00 0.00 0.00 87 1013.3
20260505031604 10 103 0.0 3.2 0.00 0.00 0.00 85 1013.4
20260505030047 10 148 0.0 3.2 0.00 0.00 0.00 84 1013.5
20260505024535 10 96 0.0 11.3 0.00 0.00 0.00 83 1013.5
20260505023030 10 245 0.0 6.4 0.00 0.00 0.00 82 1013.5
20260505021520 11 174 1.6 9.7 0.00 0.00 0.00 82 1013.7
20260505020027 11 116 0.0 9.7 0.00 0.00 0.00 81 1013.6
20260505014523 11 180 3.2 9.7 0.00 0.00 0.00 81 1013.6
20260505013015 11 131 3.2 9.7 0.00 0.00 0.00 80 1013.4
20260505011523 11 157 1.6 8.0 0.00 0.00 0.00 78 1013.2
20260505010015 12 141 3.2 14.5 0.00 0.00 0.00 77 1012.8
20260505004531 12 173 4.8 12.9 0.00 0.00 0.00 76 1012.6
20260505003012 12 176 4.8 16.1 0.00 0.00 0.00 75 1012.4
20260505001501 12 137 6.4 16.1 0.00 0.00 0.00 73 1012.2
20260505000117 12 179 6.4 16.1 0.00 0.00 0.00 71 1012.0
20260504234559 13 72 4.8 14.5 0.00 0.00 0.00 69 1011.8
20260504233101 13 211 4.8 14.5 0.00 0.00 0.00 67 1011.7
20260504231558 13 178 3.2 16.1 0.00 0.00 0.00 64 1011.5
20260504230108 14 146 4.8 14.5 0.00 0.00 0.00 63 1011.3
20260504224558 14 77 1.6 14.5 0.00 0.00 0.00 62 1011.2
20260504223104 15 191 8.0 14.5 0.00 0.00 0.00 57 1011.0
20260504221550 16 194 3.2 16.1 0.00 0.00 0.00 55 1010.9
20260504220039 16 122 9.7 22.5 0.00 0.00 0.00 53 1010.8
20260504214520 17 205 6.4 14.5 0.00 0.00 0.00 52 1010.7
20260504213020 17 96 6.4 20.9 0.00 0.00 0.00 52 1010.6
20260504211502 18 163 8.0 22.5 0.00 0.00 0.00 51 1010.6
20260504210002 18 90 6.4 19.3 0.00 0.00 0.00 50 1010.5
20260504204549 18 123 6.4 22.5 0.00 0.00 0.00 49 1010.4
20260504203059 18 153 9.7 35.4 0.00 0.00 0.00 47 1010.4
20260504201549 19 181 8.0 38.6 0.00 0.00 0.00 45 1010.3
20260504200046 19 240 8.0 19.3 0.00 0.00 0.00 43 1010.3
20260504194548 19 92 4.8 20.9 0.00 0.00 0.00 44 1010.4
20260504193045 19 136 6.4 29.0 0.00 0.00 0.00 43 1010.4
20260504191643 20 172 9.7 32.2 0.00 0.00 0.00 40 1010.5
20260504190043 20 245 11.3 25.7 0.00 0.00 0.00 39 1010.4
20260504184541 20 134 8.0 27.4 0.00 0.00 0.00 39 1010.7
20260504183141 20 187 12.9 27.4 0.00 0.00 0.00 37 1010.7
20260504181527 21 191 6.4 22.5 0.00 0.00 0.00 35 1010.8
20260504180021 21 158 6.4 17.7 0.00 0.00 0.00 35 1010.8
20260504174504 21 220 9.7 22.5 0.00 0.00 0.00 33 1010.7
20260504173002 21 139 8.0 19.3 0.00 0.00 0.00 33 1010.8
20260504171545 21 146 4.8 16.1 0.00 0.00 0.00 34 1010.9
20260504160108 20 236 4.8 27.4 0.00 0.00 0.00 36 1011.7
20260504081524 5 32 0.0 1.6 0.00 0.00 0.00 75 1013.0